Temperature
33 33 32 33 33 33 34 33 33 34 35 34 33 33 33 32 31 30 29 28 27 26 25 24 23 23 21 21 20 20 20 20 19 19 19 19 19 19 19 19 19 19 19 19
33 33 34 35 35 34 34 33 33 34 35 34 33 33 33 32 31 30 29 28 27 26 25 24 24 23 22 21 20 20 20 20 19 19 19 19 19 19 19 19 19 19 19 19
32 34 35 34 34 34 34 33 33 33 34 34 33 32 32 32 32 31 30 29 28 27 25 24 24 23 22 21 21 20 20 20 20 20 19 19 19 19 19 19 19 19 19 19
33 34 35 34 34 34 33 34 34 34 33 33 33 30 31 32 31 31 30 29 28 27 26 25 24 23 22 21 21 20 20 20 20 20 19 19 19 19 19 19 19 19 19 19
33 34 34 33 34 34 34 35 34 34 33 32 32 31 31 31 31 31 31 30 29 28 26 25 24 23 22 22 21 20 20 20 20 20 20 19 19 19 19 19 19 19 19 19
34 35 35 34 35 35 34 34 33 33 32 31 32 31 30 31 31 32 31 30 29 28 27 25 24 23 23 22 21 20 20 20 20 20 20 19 19 19 19 19 19 19 19 19
33 34 35 35 34 34 34 32 31 31 30 30 32 31 30 32 32 32 32 30 29 28 27 26 24 23 22 22 21 21 20 20 20 20 20 19 19 19 19 19 19 19 19 19
32 32 34 34 33 33 33 33 31 30 30 31 32 31 31 32 32 32 31 30 29 28 27 26 25 24 22 22 21 21 20 20 20 20 20 19 19 19 19 19 19 19 19 19
32 32 34 35 34 34 32 32 33 32 31 31 31 31 30 31 32 32 31 30 29 28 27 26 25 24 22 22 21 21 20 20 20 20 20 19 19 19 19 19 19 19 19 19
32 31 33 34 34 34 33 33 33 31 30 30 30 30 29 29 29 31 31 29 28 27 26 25 24 24 23 22 21 20 20 20 20 19 19 19 19 19 19 19 19 19 19 19
33 31 32 33 32 32 32 32 32 32 31 30 29 29 30 29 29 30 30 29 28 27 26 25 24 23 23 22 21 20 20 19 19 19 19 19 19 19 19 19 19 19 19 18
32 31 31 32 33 33 33 32 32 31 30 31 30 29 31 30 30 30 29 28 27 26 26 25 24 23 22 22 21 20 20 19 19 19 19 18 19 19 19 19 18 18 18 18
31 30 29 30 31 32 32 32 33 32 31 31 30 29 31 30 30 29 28 28 26 26 25 24 23 23 22 22 21 20 20 20 19 19 18 18 18 18 18 18 18 18 18 18
30 30 29 29 30 31 31 31 32 32 31 30 30 29 29 29 29 29 27 27 26 25 24 24 23 22 22 21 21 20 20 20 19 19 18 18 18 18 18 18 17 17 17 17
30 29 29 30 31 31 31 31 32 31 31 30 30 30 29 29 28 28 27 26 26 25 24 23 22 21 21 21 20 20 20 19 19 18 18 18 18 18 17 17 17 17 17 17
29 28 29 29 30 31 31 31 31 31 31 31 31 30 30 29 28 27 27 26 25 24 23 22 21 21 20 20 20 20 19 19 18 18 18 18 17 17 17 17 17 17 17 17
28 27 27 28 29 30 29 31 31 31 31 31 30 29 29 28 28 27 27 26 25 24 23 22 21 20 20 20 19 19 19 18 18 18 18 17 17 17 17 17 16 16 16 16
27 26 26 27 27 26 29 31 31 31 30 31 30 29 28 27 27 26 26 25 24 23 22 21 21 20 19 19 19 18 18 18 18 17 17 17 17 16 16 16 16 16 16 16
28 26 26 26 26 27 29 30 30 29 29 30 29 28 27 26 26 25 24 23 23 22 21 21 20 20 19 18 18 18 18 17 17 17 17 17 16 16 16 16 16 16 16 16
28 27 25 25 25 26 28 29 29 29 27 28 27 27 26 25 25 24 23 22 21 21 20 20 20 19 18 18 18 17 17 17 17 16 16 16 16 16 16 15 15 15 15 15
26 25 25 25 25 26 27 28 28 26 25 26 26 25 24 24 24 22 21 20 20 20 19 19 19 19 18 17 17 17 17 16 16 16 16 16 16 16 15 15 15 15 15 15
25 25 25 25 24 24 26 26 25 24 25 25 24 23 23 22 21 20 20 19 19 19 19 18 18 18 17 17 17 16 16 16 16 16 16 16 15 15 15 15 15 15 15 15
26 25 25 25 24 24 24 24 24 24 23 23 23 22 21 20 20 19 19 19 18 18 18 17 17 17 16 16 16 16 16 15 15 15 15 15 15 15 15 15 15 15 15 14
25 25 24 23 24 24 23 23 23 22 22 22 21 21 20 20 19 19 18 18 18 17 17 17 16 16 16 15 15 15 15 15 15 15 15 15 15 15 14 14 14 14 14 14
23 23 23 22 23 22 22 21 21 21 21 21 20 20 20 19 19 18 18 17 17 17 16 16 16 15 15 15 15 15 15 15 15 15 15 14 14 14 14 14 14 14 14 14
22 22 22 21 21 21 21 20 20 20 20 20 20 19 19 19 18 18 17 16 16 16 16 15 15 15 15 15 15 14 14 14 14 14 14 14 14 14 14 14 14 14 14 14
Wind_Speed
11 11 11 10 9 10 9 9 8 4 1 1 3 5 8 9 7 10 11 11 11 10 10 9 9 11 11 9 8 6 4 4 3 2 2 3 3 3 3 3 5 6 5 5
12 13 12 9 9 9 8 9 9 7 2 4 4 4 6 9 10 9 11 12 12 11 11 9 9 10 11 10 8 7 5 5 4 3 2 2 2 2 3 3 4 6 6 5
15 10 8 9 9 10 9 8 10 8 5 5 5 6 6 8 8 9 10 12 12 13 13 11 10 9 9 10 9 7 6 5 4 3 3 2 2 2 2 3 4 5 5 5
13 13 10 10 11 10 9 9 10 10 9 8 7 6 6 8 9 10 10 11 12 13 13 12 11 10 10 10 9 7 6 5 4 4 4 4 3 3 3 3 3 4 5 5
13 12 11 11 10 10 10 10 10 12 11 11 10 7 5 7 8 10 11 11 11 12 13 13 13 11 10 10 10 8 7 5 4 4 4 3 2 2 2 3 4 4 4 4
16 12 11 11 10 10 10 11 12 12 10 12 11 9 5 5 6 8 10 10 10 11 12 11 11 9 9 10 10 9 8 6 5 4 3 3 2 2 2 2 2 3 2 3
15 14 12 10 11 10 10 11 9 8 8 10 9 7 4 5 5 6 8 9 9 9 10 11 11 9 7 9 9 9 9 7 6 5 4 3 2 2 2 3 3 3 2 2
13 12 12 11 11 11 11 12 10 10 9 7 6 4 3 5 6 6 7 8 9 9 8 9 10 10 8 8 9 9 9 8 7 6 4 3 2 2 2 2 2 2 2 3
10 10 10 10 11 12 11 11 12 13 15 11 6 2 3 5 6 7 8 8 8 7 7 8 8 9 9 8 7 7 8 8 7 6 5 4 3 2 2 2 2 2 2 2
13 12 10 8 9 12 13 12 9 9 9 10 7 4 4 6 4 5 7 8 7 7 6 7 7 7 9 9 8 6 6 8 7 6 5 5 4 3 2 2 2 1 1 1
14 13 11 10 10 10 11 13 11 9 10 11 7 2 4 7 6 5 6 8 8 7 7 7 6 6 8 8 9 8 6 7 6 6 5 4 4 4 3 2 2 2 2 1
11 11 12 12 10 11 12 12 12 10 9 10 10 2 4 6 6 5 6 8 8 7 7 7 7 6 6 7 7 7 7 7 6 6 5 4 4 3 3 3 3 2 2 2
6 8 11 13 11 10 11 12 13 13 11 11 10 3 6 6 6 5 7 8 8 7 6 6 6 6 5 6 5 5 6 6 6 6 5 4 4 3 3 3 3 3 3 2
5 10 13 14 9 7 11 14 13 13 11 10 9 4 5 6 6 6 7 7 8 7 6 6 5 5 4 4 4 4 3 4 4 4 4 4 4 3 3 3 3 3 3 3
7 12 14 16 15 15 14 14 14 14 13 12 9 6 5 4 5 6 7 7 7 7 6 6 5 4 4 4 3 3 3 3 2 3 3 3 2 2 2 3 3 3 3 4
9 11 13 16 17 17 16 15 14 14 13 13 10 6 2 7 6 5 6 7 7 7 6 6 5 4 3 3 3 3 3 3 2 2 2 2 2 2 2 2 3 3 3 3
8 9 12 15 16 17 17 13 13 12 11 10 8 3 1 5 4 4 5 6 6 5 5 5 4 3 2 2 2 3 2 2 1 1 1 1 1 2 2 3 2 3 3 3
10 8 8 13 15 18 12 10 10 10 9 7 4 1 1 2 2 3 3 4 6 5 4 4 3 3 2 2 3 2 2 2 1 1 1 0 1 1 2 2 2 2 2 3
12 8 10 12 15 16 14 10 8 9 8 4 2 1 0 1 1 3 4 5 5 4 4 3 3 3 3 2 2 1 1 1 0 0 0 0 1 1 2 2 2 2 3 3
13 10 10 12 14 16 9 6 4 6 7 2 3 2 1 2 3 2 4 5 6 4 4 3 2 3 3 2 2 1 0 1 1 1 1 0 1 2 2 2 2 2 3 4
13 12 14 15 16 12 5 6 4 6 1 4 3 2 1 0 1 4 5 5 5 4 3 3 3 3 3 3 2 1 0 1 1 1 1 1 1 2 1 1 1 2 2 3
12 11 12 13 15 9 5 2 2 2 4 4 4 5 4 5 6 6 5 5 4 3 3 3 3 3 3 3 2 1 1 2 1 1 1 1 1 2 1 1 1 1 2 3
10 8 6 6 4 1 4 4 3 3 4 3 3 5 5 5 5 4 4 4 4 4 4 3 2 2 2 2 2 1 1 2 2 1 1 1 1 1 2 1 1 1 2 2
5 4 5 4 1 2 4 3 2 4 4 3 3 3 3 4 4 3 3 3 3 3 2 2 1 1 1 1 1 1 1 2 2 2 1 1 1 1 1 2 2 1 2 2
8 5 5 5 3 2 2 3 3 3 2 1 1 1 2 3 3 2 2 2 2 2 2 1 1 0 1 0 0 1 1 1 2 2 2 2 1 1 1 1 1 1 1 1
8 6 6 4 2 2 2 2 3 2 1 0 0 1 1 2 3 3 2 2 2 1 1 1 1 1 1 1 1 1 1 1 2 2 2 2 2 1 2 1 1 2 1 2
Wind_Direction
229 236 242 241 238 257 277 295 293 285 224 230 188 180 176 168 165 157 157 156 156 155 152 151 156 151 146 144 145 147 153 151 164 176 186 181 178 183 178 178 168 164 183 187
234 236 245 253 253 258 264 273 276 273 254 284 285 235 186 164 171 172 164 161 160 158 156 155 157 156 156 154 154 157 161 170 191 183 198 193 190 192 179 172 161 175 187 191
238 243 239 252 252 260 267 267 275 279 277 261 256 256 206 182 175 169 171 165 165 166 163 163 163 159 157 157 162 165 166 176 192 185 198 193 172 198 178 171 169 180 189 186
248 251 248 250 255 260 266 275 286 284 283 277 252 249 213 197 181 176 179 170 168 169 166 165 167 168 167 163 161 154 159 171 177 180 201 194 184 183 180 173 171 180 189 188
244 244 248 253 257 266 274 286 284 280 277 278 269 262 223 192 187 182 178 173 169 172 169 168 169 170 170 166 162 158 153 158 162 176 185 194 191 185 184 172 171 186 191 191
251 244 243 252 256 260 272 278 269 263 268 264 257 254 244 197 179 178 171 170 167 169 163 162 164 164 167 164 161 161 156 158 157 160 169 183 192 196 206 201 187 195 196 199
244 242 235 239 254 248 249 260 265 260 244 254 252 240 208 159 164 162 162 160 162 161 157 156 158 160 164 166 163 164 160 165 166 169 170 179 194 204 215 224 217 218 211 211
240 240 229 223 236 254 249 254 260 274 278 277 264 246 180 147 152 150 149 150 156 160 158 157 160 159 168 170 167 163 163 166 170 173 172 176 186 210 218 235 235 229 230 219
252 248 234 217 228 242 254 257 266 273 278 280 267 214 144 138 145 144 140 138 146 151 151 151 149 154 162 163 160 160 160 165 170 174 171 168 174 198 211 225 225 249 253 241
261 269 252 224 227 233 249 261 268 267 278 279 262 242 186 162 172 155 146 139 136 140 141 142 143 156 165 167 158 158 161 165 167 171 181 179 184 196 206 235 220 219 249 258
255 264 260 238 225 242 240 246 256 271 276 279 278 285 143 158 177 163 149 135 133 135 146 147 145 154 158 162 159 157 161 162 172 178 181 181 183 196 204 223 238 235 249 252
245 255 260 254 242 238 248 251 251 256 264 276 281 250 132 149 136 137 132 127 131 135 140 137 138 138 147 158 157 159 164 171 176 176 178 183 185 193 201 218 227 229 235 247
262 254 257 250 242 230 242 254 254 256 258 262 271 229 136 119 113 126 123 123 120 118 117 121 130 132 137 146 145 150 165 169 170 173 178 179 192 199 207 217 223 226 231 241
278 258 259 260 259 256 250 251 255 258 261 261 260 229 158 155 147 136 123 128 128 126 119 110 107 109 106 108 121 144 153 152 158 165 175 177 193 208 215 220 225 224 228 232
249 255 262 269 271 265 262 253 249 251 259 267 268 249 206 167 150 137 141 147 145 136 129 118 111 103 111 121 128 125 118 110 132 153 168 171 191 205 221 228 233 233 232 239
241 262 269 269 269 268 266 256 250 250 254 261 266 257 183 132 139 155 160 158 151 145 142 132 126 123 110 123 129 122 119 117 124 146 158 164 196 211 223 239 240 239 243 247
253 256 263 266 271 274 261 259 257 257 256 263 270 274 118 142 157 161 166 160 151 146 142 138 136 131 118 114 108 117 115 122 131 156 166 165 206 224 237 251 254 250 247 245
246 256 261 265 267 261 263 272 269 265 261 264 269 302 71 129 132 120 153 149 136 137 137 137 147 148 135 125 108 101 128 135 166 186 172 144 237 237 243 253 258 258 256 252
237 239 251 257 260 259 258 264 266 263 259 275 262 177 171 102 151 133 102 93 102 107 109 121 138 148 130 125 116 104 112 132 213 231 215 130 283 264 260 261 262 267 262 256
229 224 239 251 259 261 271 287 283 265 250 338 43 60 102 170 214 154 96 88 79 71 79 86 123 125 118 111 114 128 199 229 258 316 324 318 293 276 267 265 263 266 262 268
228 228 235 247 254 257 305 327 285 247 275 33 35 79 26 178 38 99 102 94 88 73 64 65 67 87 94 104 116 143 282 300 318 335 333 326 294 271 265 294 301 291 286 284
236 238 241 248 253 254 348 335 335 24 43 50 59 88 87 81 87 95 103 101 97 94 75 62 66 72 76 99 118 110 22 2 3 6 4 8 349 312 352 6 331 333 314 301
239 242 246 252 259 51 26 26 38 47 46 51 65 84 96 100 106 104 102 109 106 86 76 68 71 75 77 93 98 69 18 7 354 360 359 2 353 342 349 336 335 337 330 318
277 310 280 283 252 18 18 11 38 54 48 52 76 100 102 117 122 123 118 111 114 110 110 99 91 73 79 105 76 1 345 342 338 328 328 308 309 323 346 326 339 351 357 346
298 294 275 261 269 289 306 359 25 60 79 78 70 95 122 134 134 125 120 112 109 120 126 119 114 160 196 138 335 298 311 311 306 286 285 281 277 281 294 306 338 335 47 52
284 292 279 276 316 296 310 343 333 344 336 1 164 153 159 136 136 133 123 112 96 77 85 136 191 229 225 219 251 299 315 296 290 282 282 282 275 264 245 240 255 50 88 113
Height
1475 1476 1476 1471 1468 1468 1468 1471 1472 1465 1456 1461 1467 1471 1471 1474 1478 1483 1488 1493 1497 1500 1504 1507 1509 1511 1513 1514 1515 1517 1518 1519 1520 1522 1523 1525 1526 1527 1528 1530 1531 1532 1533 1534
1472 1473 1466 1462 1462 1464 1466 1472 1471 1463 1457 1462 1468 1469 1468 1471 1477 1480 1485 1490 1494 1499 1502 1505 1507 1510 1511 1513 1514 1515 1517 1518 1519 1521 1522 1524 1525 1526 1527 1528 1529 1530 1531 1533
1471 1464 1460 1462 1464 1466 1466 1469 1468 1467 1461 1461 1468 1475 1471 1470 1473 1478 1482 1486 1491 1495 1499 1502 1505 1507 1510 1511 1513 1514 1515 1517 1518 1519 1520 1522 1524 1525 1526 1527 1528 1529 1531 1532
1465 1459 1460 1462 1463 1464 1471 1461 1461 1463 1470 1473 1469 1490 1476 1469 1471 1475 1479 1483 1487 1492 1496 1499 1502 1505 1508 1510 1512 1513 1514 1515 1516 1516 1518 1520 1522 1523 1525 1526 1527 1528 1529 1530
1465 1459 1460 1464 1462 1461 1463 1458 1460 1462 1468 1474 1470 1480 1477 1467 1473 1472 1475 1479 1484 1488 1492 1496 1500 1503 1506 1508 1510 1511 1513 1514 1514 1515 1516 1519 1521 1522 1524 1525 1527 1527 1528 1529
1457 1454 1455 1458 1456 1457 1458 1460 1461 1461 1468 1486 1473 1480 1485 1469 1468 1468 1471 1476 1481 1485 1489 1494 1498 1501 1504 1506 1508 1510 1511 1512 1514 1515 1516 1518 1519 1521 1523 1524 1525 1526 1527 1527
1461 1454 1452 1454 1459 1457 1460 1471 1483 1487 1488 1486 1464 1473 1476 1461 1461 1464 1468 1473 1478 1483 1487 1491 1495 1499 1502 1504 1506 1508 1509 1511 1512 1514 1515 1517 1519 1520 1521 1522 1523 1524 1525 1526
1469 1466 1452 1451 1457 1462 1460 1466 1487 1498 1492 1480 1467 1474 1468 1457 1460 1464 1468 1472 1477 1482 1485 1489 1493 1496 1500 1502 1505 1507 1508 1509 1511 1513 1514 1516 1517 1519 1519 1520 1522 1522 1523 1524
1464 1463 1446 1447 1450 1455 1462 1464 1459 1471 1474 1481 1474 1468 1465 1460 1461 1464 1467 1472 1477 1481 1485 1488 1491 1495 1498 1501 1503 1505 1507 1508 1509 1511 1513 1514 1515 1517 1517 1518 1519 1520 1520 1522
1455 1464 1450 1446 1449 1451 1455 1457 1462 1473 1488 1491 1481 1476 1476 1470 1468 1465 1468 1472 1477 1481 1485 1488 1490 1494 1497 1499 1501 1504 1505 1506 1508 1510 1511 1512 1513 1514 1516 1517 1517 1517 1518 1519
1453 1463 1457 1450 1455 1459 1458 1460 1462 1465 1468 1483 1491 1485 1462 1465 1465 1466 1469 1473 1477 1481 1485 1488 1491 1493 1496 1498 1501 1501 1503 1505 1507 1508 1509 1511 1511 1512 1513 1514 1515 1515 1516 1516
1452 1458 1464 1455 1446 1446 1451 1454 1459 1473 1476 1471 1477 1481 1457 1460 1463 1466 1469 1474 1478 1481 1484 1488 1490 1492 1494 1496 1500 1501 1503 1504 1505 1507 1508 1509 1510 1510 1511 1511 1512 1513 1513 1514
1455 1461 1473 1468 1459 1451 1452 1451 1451 1455 1462 1469 1477 1479 1458 1461 1465 1468 1472 1475 1479 1482 1485 1488 1490 1492 1494 1496 1498 1500 1502 1503 1504 1505 1506 1507 1508 1508 1509 1509 1509 1510 1510 1511
1458 1461 1468 1474 1465 1457 1458 1454 1451 1456 1464 1468 1468 1470 1464 1463 1467 1470 1474 1477 1480 1483 1486 1488 1490 1492 1494 1496 1498 1500 1501 1502 1503 1504 1504 1505 1505 1506 1506 1507 1507 1507 1507 1508
1457 1463 1461 1456 1451 1450 1451 1451 1450 1454 1456 1462 1461 1462 1461 1461 1465 1470 1474 1477 1480 1484 1486 1488 1490 1492 1494 1495 1497 1499 1500 1500 1501 1502 1503 1503 1504 1504 1504 1504 1504 1504 1505 1505
1457 1462 1462 1461 1452 1448 1449 1446 1446 1449 1449 1452 1454 1458 1456 1460 1466 1471 1474 1477 1480 1483 1486 1488 1490 1492 1494 1495 1496 1497 1498 1499 1499 1500 1501 1501 1501 1502 1502 1502 1502 1502 1502 1502
1458 1464 1469 1468 1456 1453 1457 1446 1445 1445 1444 1449 1456 1457 1457 1462 1466 1470 1473 1476 1479 1482 1485 1487 1490 1491 1493 1494 1495 1495 1496 1497 1498 1498 1499 1499 1500 1500 1500 1500 1500 1499 1499 1499
1460 1465 1468 1468 1467 1476 1453 1438 1440 1444 1445 1446 1450 1454 1458 1463 1466 1470 1473 1476 1479 1482 1484 1487 1489 1490 1492 1493 1494 1495 1495 1496 1496 1497 1497 1497 1497 1498 1497 1497 1497 1496 1496 1496
1454 1462 1468 1470 1471 1462 1448 1441 1442 1447 1450 1448 1451 1455 1460 1463 1467 1471 1474 1477 1479 1482 1484 1486 1488 1489 1490 1491 1492 1493 1494 1495 1495 1495 1495 1495 1495 1495 1495 1494 1494 1494 1493 1493
1451 1456 1466 1468 1474 1472 1453 1442 1442 1446 1455 1452 1454 1458 1462 1464 1469 1473 1475 1477 1480 1482 1484 1486 1487 1488 1489 1490 1491 1492 1493 1493 1493 1493 1493 1493 1493 1493 1492 1492 1491 1491 1491 1490
1455 1459 1463 1466 1467 1457 1449 1447 1446 1460 1463 1457 1458 1461 1465 1467 1470 1475 1476 1478 1479 1482 1484 1486 1486 1487 1488 1489 1489 1490 1491 1491 1491 1492 1491 1491 1491 1491 1490 1490 1489 1489 1488 1488
1454 1459 1461 1462 1466 1465 1453 1451 1456 1461 1459 1460 1462 1464 1467 1469 1472 1474 1476 1477 1480 1482 1484 1485 1486 1487 1487 1487 1488 1488 1489 1489 1489 1489 1489 1488 1488 1488 1488 1487 1487 1486 1486 1486
1448 1450 1452 1456 1460 1458 1457 1457 1459 1460 1461 1463 1464 1466 1468 1470 1473 1475 1477 1479 1481 1482 1483 1484 1485 1486 1486 1486 1486 1486 1486 1486 1486 1486 1486 1486 1486 1486 1486 1485 1485 1484 1484 1484
1447 1449 1451 1454 1454 1456 1458 1460 1460 1462 1464 1465 1466 1467 1469 1471 1473 1475 1477 1479 1480 1482 1483 1484 1484 1484 1485 1485 1485 1484 1484 1484 1484 1484 1484 1484 1483 1483 1483 1483 1483 1483 1482 1482
1454 1453 1453 1455 1456 1459 1461 1462 1462 1463 1465 1466 1468 1469 1470 1471 1473 1475 1477 1478 1480 1480 1481 1482 1483 1483 1483 1483 1482 1482 1482 1482 1482 1482 1481 1481 1481 1481 1481 1481 1481 1480 1480 1479
1455 1456 1457 1457 1459 1460 1462 1463 1464 1465 1466 1467 1468 1469 1470 1472 1473 1475 1476 1477 1478 1479 1480 1480 1481 1481 1481 1480 1480 1480 1480 1480 1479 1479 1479 1479 1479 1479 1479 1479 1479 1478 1478 1477